www.pogodaiklimat.ru

АРХИВ ПОГОДЫ в Кернее

Время (UTC), дата Ветер
(напр.,м/с)
 
Видим.   Явления Облачность Т
(С)
Тd
(С)
f
(%)
Тe
(С)
Тes
(С)
Комфортность

P
(гПа)

Po
(гПа)
Тmin
(С)
Tmax
(С)
R
(мм)
SD
(см)
00:57 27.09 Ю  16 км  дымка  ясно  +14.0  +5.0  55  +12  +12    1018.7  942.4  +13.3  +19.4     
01:57 27.09 Ю  16 км  дымка  ясно  +14.4  +5.0  53  +12  +12    1018.1  942.4  +13.3  +19.4     
02:57 27.09 Ю  16 км    ясно  +15.0  +5.0  51  +13  +13    1017.6  942.1  +13.3  +19.4     
03:57 27.09 Ю  16 км  дымка  ясно  +14.0  +5.0  55  +12  +12    1017.1  941.8  +13.3  +19.4     
04:57 27.09 ЮЗ  16 км  дымка  ясно  +13.9  +5.0  55  +12  +12    1017.0  941.8  +13.3  +19.4     
05:57 27.09 ЮЗ  16 км    ясно  +13.0  +5.0  58  +11  +11    1016.4  941.1  +11.1  +13.9     
06:57 27.09 ЮЗ  16 км    ясно  +13.0  +4.0  54  +10  +10    1015.7  940.5  +11.1  +13.9     
07:57 27.09 ЮЗ  16 км    ясно  +12.8  +3.9  55  +10  +10    1015.1  940.2  +11.1  +13.9     
08:57 27.09 ЮЗ  16 км    ясно  +11.7  +3.9  59  +9  +9    1014.4  939.3  +11.1  +13.9     
09:57 27.09 ЮЗ  16 км    ясно  +12.0  +4.0  58  +9  +9    1014.2  939.3  +11.1  +13.9     
10:57 27.09 З  16 км    ясно  +11.1  +3.9  61  +9  +9    1015.1  939.9  +11.1  +13.9     
11:57 27.09 З  16 км    ясно  +10.0  +4.0  66  +9  +9    1015.5  939.9  +10.0  +22.2     
13:57 27.09 ЮЗ  16 км    ясно  +15.0  +5.0  51  +14  +14    1014.7  939.3  +10.0  +22.2     
14:57 27.09 нст  16 км    ясно  +17.0  +5.0  45  +17  +19    1014.3  939.3  +10.0  +22.2     
15:57 27.09 штиль  16 км    ясно  +19.0  +5.0  40  +19  +24    1013.8  938.9  +10.0  +22.2     
16:57 27.09 С  16 км    ясно  +22.2  +3.9  30  +22  +25  комфорт  1013.2  938.6  +10.0  +22.2     
17:57 27.09 С  16 км    ясно  +24.0  +3.0  25  +23  +25  комфорт  1012.7  938.0  +17.8  +23.9     
18:57 27.09 СВ  4
{8} 
16 км    ясно  +24.0  +3.0  25  +23  +27  комфорт  1012.4  938.0  +17.8  +23.9     
19:57 27.09 СВ  7
{10} 
16 км    ясно  +23.9  +2.2  24  +23  +24  комфорт  1012.2  937.7  +17.8  +23.9     
20:57 27.09 СВ  16 км    ясно  +23.0  +3.0  27  +23  +23  комфорт  1012.5  937.7  +17.8  +23.9     
21:57 27.09 СВ  16 км    ясно  +21.0  +4.0  33  +21  +21  комфорт  1013.2  938.3  +17.8  +23.9     
22:57 27.09 СВ  16 км    ясно  +17.8  +3.9  40  +17  +17    1014.5  939.3  +17.8  +23.9     
23:57 27.09 СВ  16 км    ясно  +16.0  +6.0  51  +14  +14    1015.8  940.2  +11.7  +17.8     
00:57 28.09 СВ  16 км    ясно  +14.0  +6.0  59  +12  +12    1016.0  940.5  +11.7  +17.8     
01:57 28.09 СВ  16 км    ясно  +13.3  +6.7  64  +11  +11    1016.9  941.4  +11.7  +17.8     
02:57 28.09 СВ  16 км    ясно  +13.0  +7.0  67  +10  +10    1016.9  941.4  +11.7  +17.8     
03:57 28.09 СВ  16 км    ясно  +13.0  +7.0  67  +10  +10    1017.9  942.4  +11.7  +17.8     
04:57 28.09 СВ  16 км    ясно  +11.7  +7.8  77  +8  +8    1017.9  942.7  +11.7  +17.8     
05:57 28.09 СВ  16 км    ясно  +11.0  +7.0  76  +7  +7    1018.0  942.7  +7.8  +11.7     
06:57 28.09 СВ  7
{10} 
16 км    10/10 м
[средняя] 
+11.0  +6.0  71  +8  +8    1019.4  944.0  +7.8  +11.7     
07:57 28.09 СВ  9
{12} 
16 км    10/10 м
[средняя] 
+9.4  +5.6  77  +5  +5    1019.3  944.0  +7.8  +11.7     
08:22 28.09 СВ  8
{11} 
16 км    10/10 м
[средняя] 
+9.0  +4.0  71  +5  +5    1021.5  944.9  +7.8  +11.7     
09:57 28.09 СВ  16 км    10/10 м
[средняя] 
+8.0  +4.0  76  +3  +3    1022.1  946.1  +7.8  +11.7     
10:57 28.09 СВ  16 км    10/10 м
[средняя] 
+7.8  +3.3  73  +3  +3    1023.2  946.8  +7.8  +11.7     
11:57 28.09 СВ  16 км    10/10 м
[средняя] 
+8.0  +3.0  71  +4  +4    1024.5  948.0  +8.3  +10.0     
12:57 28.09 С  16 км    10/10 м
[средняя] 
+8.0  +3.0  71  +4  +4    1025.2  948.7  +8.3  +10.0     
13:51 28.09 С  16 км    10/10 м
[средняя] 
+8.0  +3.0  71  +3  +3    1026.1  949.3  +8.3  +10.0     
14:40 28.09 СВ  16 км    10/10 м
[средняя] 
+8.0  +3.0  71  +3  +3    1027.1  949.9  +8.3  +10.0     
15:32 28.09 СВ  16 км    10/10 м
[средняя] 
+8.0  +3.0  71  +3  +3    1027.7  950.2  +8.3  +10.0     
16:30 28.09 СВ  16 км    10/10 м
[средняя] 
+8.0  +2.0  66  +3  +3    1027.5  950.8  +8.3  +10.0     
17:57 28.09 СВ  16 км    10/10 м
[средняя] 
+9.0  +3.0  66  +5  +5    1027.5  950.5  +8.3  +10.0     
18:43 28.09 СВ  16 км    10/10 м
[средняя] 
+9.0  +3.0  66  +5  +5    1026.9  950.2  +8.3  +10.0     
19:57 28.09 СВ  16 км    10/10 м
[средняя] 
+9.4  +2.2  61  +6  +6    1026.9  949.9  +8.3  +10.0     
20:57 28.09 СВ  16 км    10/0 м
[средняя] 
+9.0  +2.0  61  +5  +6    1026.6  949.6  +8.3  +10.0     
21:57 28.09 В  16 км    10/0 м
[средняя] 
+9.0  +2.0  61  +6  +7    1026.5  949.3  +8.3  +10.0     
22:57 28.09 СВ  16 км  слабый дождь  ясно  +8.9  +1.7  61  +6  +6    1026.5  949.3  +8.3  +10.0     
23:57 28.09 В  16 км    10/10 м
[средняя] 
+8.0  +2.0  66  +7  +7    1027.0  949.6  +7.8  +8.9     
00:57 29.09 СВ  16 км  слабый дождь  10/10 м
[средняя] 
+8.0  +3.0  71  +7  +7    1027.2  949.9  +7.8  +8.9     

 

Местоположение метеостанции Kearney Municipal Airport: широта 40.7333 долгота -99.0000 высота над уровнем моря 650 м.

В архиве по умолчанию представлена погода в Кернее за последние 1-2 суток. Обновление информации о фактической погоде в базе происходит ежечасно! Архивные данные за месяц целиком и за предыдущие месяцы Вы можете получить, выбрав интересующий диапазон дат из раскрывающегося списка и нажав кнопку "Ввод!".

Внимание! Архив погоды МЕТАР в базе сайта в настоящее время начинается c 1 января 2013 г. Нет смысла пытаться выбрать более раннюю дату.

Внимание! Время в таблицах - всемирное. Для получения местного времени необходимо прибавить поправку, которая в Кернее равна -6 ч.

Ветер - указаны скорость ветра в м/с и направление, откуда дует ветер: С - северный, СВ - северо-восточный, В - восточный, ЮВ - юго-восточный, Ю - южный, ЮЗ - юго-западный, З - западный, СЗ - северо-западный.
Видимость - горизонтальная дальность видимости в метрах или километрах. При видимости от 1 до 10 км при отсутствии осадков обычно наблюдается дымка, при ухудшении видимости до 1 км и менее - туман. В сухую погоду видимость может ухудшаться дымом, пылью или мглою.
Атмосферные явления - указаны явления, наблюдавшиеся в указанный момент времени.
Облачность - указаны через наклонную черту верхняя и нижняя облачность в баллах и высота нижней границы облаков в метрах. Внимание: облачность, как и прочие метеорологические величины в США измеряются автоматическими метеостанциями. Указанные значения в баллах носят условный характер и показывают процент времени, в течение которого, в среднем, лазерный луч высотомера отражался от облаков обратно.
T - Температура воздуха - температура, измеренная на высоте 2 м над землей.
Td - Температура точки росы - температура, при понижении до которой содержащийся в воздухе водяной пар достигнет насыщения.
f - Относительная влажность воздуха - влажноcть воздуха, измеренная на высоте 2 м над землей.
Te - Эффективная температура - температура, которую ощущает одетый по сезону человек в тени. Характеристика душности погоды. При расчете учитывается влияние влажности воздуха и скорости ветра на теплоощущения человека.
Tes - Эффективная температура на солнце - температура, которую ощущает человек, с поправкой на солнечный нагрев. Характеристика знойности погоды. Зависит от высоты солнца над горизонтом, облачности и скорости ветра. Ночью, в пасмурную погоду, а также при ветре 12 м/с и более поправка равна нулю.
P - Атмосферное давление - приведенное к уровню моря атмосферное давление.
Po - Атмосферное давление - измеренное на уровне метеостанции атмосферное давление.
Tmin - Минимальная температура - минимум температуры воздуха на высоте 2 м над землей.
Tmax - Максимальная температура - максимум температуры воздуха на высоте 2 м над землей.
R - Количество осадков - Количество выпавших осадков за 3 или 6 часов, мм.
SD - Снежный покров - Высота снежного покрова, см.